Theta_e
300 301 302 303 304 305 305 307 308 309 310 313 315 318 321 328 332 339 340 325 328 337 341 343 343 345 346 345 345 344 343 344 343 341 340 340 339 338 336 335 335 334 334
299 299 301 301 303 304 304 304 304 306 308 309 311 314 317 323 326 331 338 338 326 332 338 342 343 343 344 346 346 345 343 344 342 341 340 339 338 337 336 335 334 333 333
298 298 299 300 302 303 303 303 303 305 306 307 309 311 314 319 323 325 333 337 333 325 330 338 342 343 344 345 345 345 344 344 342 342 340 339 338 337 335 335 334 334 332
297 297 298 299 301 301 301 302 302 303 305 306 307 309 312 317 323 327 328 334 335 332 327 331 336 340 341 343 343 343 343 343 343 341 340 339 337 337 335 334 334 333 332
296 296 296 297 299 299 301 301 301 302 303 304 306 308 310 314 320 321 318 321 329 333 332 327 327 329 335 339 339 339 341 343 342 341 339 338 337 337 335 334 333 333 332
295 295 296 297 299 299 300 299 298 300 301 303 303 305 309 313 317 315 316 315 316 324 331 330 327 326 325 331 332 334 337 341 341 340 339 338 337 336 335 334 333 332 331
294 294 295 296 297 297 298 300 298 297 297 301 302 304 307 310 312 312 312 309 310 310 316 327 326 327 325 327 329 330 335 337 338 339 339 338 337 336 334 333 332 331 330
293 293 293 293 293 294 295 297 296 295 296 301 299 301 299 305 311 310 308 305 305 302 303 309 320 321 321 323 322 326 329 331 333 335 337 337 336 335 333 332 332 331 330
291 292 291 291 291 293 293 296 295 295 294 298 300 300 298 299 305 306 303 299 298 297 297 297 300 304 309 313 316 320 322 326 328 333 335 334 335 334 333 332 332 332 331
290 290 290 289 290 292 293 294 295 295 296 294 299 303 305 305 301 302 301 297 293 292 288 291 292 293 294 299 306 309 311 317 322 328 330 332 334 335 333 333 332 331 331
289 289 288 288 289 291 291 292 292 292 295 295 296 298 301 304 306 302 299 297 294 290 289 288 287 290 289 292 299 304 307 310 314 317 323 328 331 333 332 331 331 331 331
287 287 287 287 287 288 288 290 290 290 292 293 294 295 297 298 301 303 301 302 295 290 287 288 287 288 289 291 294 297 304 309 313 315 318 322 326 329 331 332 333 332 331
284 284 285 285 286 287 288 289 289 289 289 290 291 292 294 295 298 301 303 296 295 290 289 287 286 287 286 289 292 293 299 309 314 316 315 317 321 324 325 326 331 331 330
283 284 283 283 284 285 286 287 287 287 288 288 287 287 288 290 292 295 299 296 291 289 287 286 286 286 287 288 290 292 297 304 312 314 314 315 315 316 316 317 318 318 320
283 283 282 283 284 284 284 284 284 285 285 285 286 286 287 288 289 292 296 298 298 288 290 286 286 285 286 286 288 287 290 298 306 310 311 311 312 313 313 312 312 312 312
281 282 282 284 284 283 283 284 284 285 285 285 286 286 286 288 289 292 293 297 297 294 289 286 284 283 284 285 286 285 287 290 297 302 304 306 307 308 308 308 308 308 308
282 282 282 282 282 282 283 283 283 284 284 285 286 286 286 287 289 290 292 293 292 292 290 283 283 282 282 283 283 283 284 285 288 296 299 300 301 302 302 303 304 304 304
282 282 281 281 282 282 283 282 282 282 282 283 284 285 285 286 286 288 290 289 293 293 293 285 282 280 281 281 281 281 281 282 284 290 294 295 296 296 297 297 297 298 298
281 282 283 281 281 282 281 281 281 281 282 282 282 283 284 284 285 287 287 288 289 287 289 287 282 280 279 279 278 280 279 279 281 285 288 289 290 292 292 292 292 292 292
281 281 282 282 283 283 283 281 281 281 281 281 282 282 282 282 283 284 285 286 286 286 287 285 282 280 279 278 279 278 277 277 277 280 280 281 284 286 289 289 289 289 289
281 282 281 282 283 284 283 282 281 281 280 280 280 280 280 281 284 285 284 284 284 285 284 283 282 280 278 276 277 278 277 276 275 276 276 277 278 279 279 285 285 286 287
281 281 281 282 282 283 283 282 281 280 279 279 279 279 279 279 280 283 285 286 285 283 283 282 281 280 278 278 277 277 275 275 276 276 275 275 276 276 278 278 283 283 284
280 279 279 281 281 282 281 280 279 279 279 278 278 279 279 279 279 278 280 280 280 283 284 282 281 279 278 277 277 276 275 276 274 273 274 273 274 274 277 277 283 283 282
280 280 280 280 280 281 281 281 279 278 278 278 278 278 279 279 280 279 279 279 279 279 278 279 279 278 278 278 278 278 277 273 273 273 274 276 274 274 275 276 279 282 282
280 279 279 279 279 280 281 281 279 279 278 278 279 279 279 278 280 279 279 278 277 278 281 283 283 283 282 281 280 278 276 276 275 274 274 276 274 275 274 274 275 280 282
277 277 277 278 279 278 281 282 280 278 278 277 278 279 281 280 280 279 278 278 276 275 277 276 276 277 278 278 278 277 278 279 278 275 274 274 272 273 273 275 274 273 274
Wind_Speed
8 8 7 7 7 7 7 7 7 8 8 9 9 9 11 10 10 8 7 14 16 20 25 26 25 23 23 23 22 22 22 21 21 21 22 22 22 21 21 21 21 21 21
8 8 8 8 8 7 7 8 8 9 8 9 10 10 11 10 11 10 9 10 19 22 23 26 27 26 25 24 23 23 25 24 24 24 24 24 23 23 22 23 22 22 22
10 11 9 8 8 7 9 9 9 9 9 9 11 11 10 11 10 12 11 10 9 20 22 25 26 26 25 25 24 23 24 25 24 25 26 26 26 25 24 24 23 22 23
10 10 9 9 9 8 8 8 9 9 9 9 9 8 9 10 8 9 7 11 12 9 16 24 26 27 25 24 24 22 23 24 25 26 27 28 28 28 27 26 24 23 23
10 9 8 9 10 8 8 7 9 9 9 9 10 9 9 10 8 7 10 9 9 10 9 18 23 21 20 20 22 23 24 24 24 26 28 29 29 29 28 26 24 24 24
10 9 9 10 9 9 8 7 9 9 10 10 12 10 10 9 6 7 9 6 7 9 10 13 12 12 15 17 14 19 22 23 23 24 27 30 31 30 28 26 25 23 22
9 10 8 9 9 9 10 9 9 11 9 10 11 9 10 12 12 9 7 6 7 5 9 9 8 8 11 20 21 25 24 21 23 22 26 27 37 36 29 29 28 26 23
9 10 10 9 11 10 11 9 10 9 9 9 10 10 8 8 7 9 6 6 6 4 5 6 8 10 10 9 17 25 24 23 25 23 22 22 18 25 25 25 29 27 27
10 10 10 9 10 8 9 9 10 12 10 10 12 9 6 7 6 4 7 3 4 3 3 4 6 4 2 6 9 12 18 22 24 25 25 21 26 28 31 31 30 28 28
10 10 10 11 9 8 9 8 10 9 9 10 10 10 14 12 6 5 2 2 2 3 4 4 4 5 4 3 6 8 10 15 19 20 23 24 30 39 32 31 30 30 30
9 9 9 10 10 7 8 10 11 12 9 9 9 10 12 11 12 11 11 2 2 1 1 3 5 4 4 4 5 7 13 17 17 17 20 25 24 26 29 30 31 32 32
7 9 9 9 8 8 11 8 9 12 10 10 9 10 10 10 9 8 9 9 2 1 2 0 2 3 3 4 6 10 15 19 21 20 21 20 22 26 30 30 32 30 31
6 8 8 9 8 9 9 9 9 10 10 9 10 9 9 9 9 10 11 1 4 2 2 1 1 2 3 3 5 12 12 19 18 14 9 5 21 23 13 8 27 28 28
8 9 8 9 11 11 10 9 8 8 9 9 12 10 9 9 7 8 8 2 3 2 2 2 2 1 3 4 7 14 6 2 15 16 15 19 19 16 19 20 16 16 14
8 9 10 10 9 9 9 9 8 10 10 10 10 9 9 9 7 7 8 4 3 3 3 2 2 4 4 4 8 6 8 13 12 10 18 19 18 19 20 21 23 22 21
10 10 11 9 8 8 8 9 9 9 9 9 7 8 8 8 7 7 6 6 3 3 2 1 1 2 2 3 7 6 9 14 15 12 14 16 19 21 20 20 20 18 17
8 8 9 10 9 9 8 9 10 10 10 10 8 8 9 8 7 6 5 5 3 4 3 3 2 2 3 1 4 5 7 7 7 12 14 16 16 17 18 18 16 15 14
8 9 9 10 10 9 8 8 9 8 9 9 7 6 7 5 8 6 5 6 7 1 3 3 2 1 2 3 3 3 3 5 5 10 11 13 12 14 13 14 15 12 10
8 7 8 8 9 8 8 8 8 8 7 6 5 5 5 4 4 6 7 4 3 1 2 3 5 2 1 1 3 3 2 2 3 9 10 9 9 10 10 9 11 11 8
6 7 7 7 7 7 7 6 6 6 5 4 4 3 5 6 5 5 4 4 4 2 1 2 3 2 2 4 2 2 2 1 1 3 5 4 6 6 5 6 6 7 8
5 5 6 7 7 5 6 7 6 5 5 4 4 5 5 7 14 6 3 4 4 2 1 1 2 3 2 2 6 4 2 2 2 0 1 2 1 1 2 2 3 5 7
5 5 6 5 6 5 12 12 8 5 6 6 6 7 7 9 10 17 15 10 5 3 2 1 2 2 4 2 3 4 3 3 3 2 2 2 2 2 2 1 8 9 9
4 4 4 6 5 4 8 8 8 5 6 7 7 7 6 6 7 7 9 11 11 12 6 2 2 3 4 5 6 6 4 2 1 2 3 2 1 1 3 3 11 11 9
4 4 4 5 6 4 9 8 6 3 2 3 4 5 6 7 8 5 5 6 8 9 6 4 4 2 4 5 5 3 3 6 2 3 1 1 2 2 2 1 9 13 13
5 4 4 5 5 5 10 8 6 3 3 4 4 5 4 4 7 7 4 5 5 6 12 13 11 14 12 11 9 6 2 3 3 2 2 1 1 1 2 2 3 10 12
6 5 6 5 6 6 8 9 6 3 3 2 1 2 6 6 9 8 3 1 2 2 3 1 3 8 9 9 7 2 3 3 3 1 2 3 1 0 0 1 1 2 3
Wind_Direction
312 311 310 304 305 307 302 307 306 300 294 283 279 277 278 277 291 237 234 210 219 218 217 225 229 226 227 226 224 225 228 222 215 209 208 201 198 199 201 208 202 199 197
305 301 301 303 298 299 304 306 299 295 290 288 283 273 271 272 276 284 241 232 206 216 223 222 223 231 230 230 232 234 234 228 221 211 208 205 201 201 205 208 205 202 202
307 304 300 296 297 301 303 293 292 288 282 278 273 269 268 267 267 265 272 243 219 214 215 225 225 225 230 232 233 233 230 226 225 216 210 208 203 202 203 205 204 205 204
299 299 298 298 302 305 297 295 297 298 291 285 280 276 277 271 267 296 283 264 231 210 213 222 227 225 225 230 236 241 235 229 226 223 215 210 206 203 203 200 203 206 206
296 294 291 293 298 294 290 302 308 301 292 286 283 275 269 266 266 278 287 286 284 225 213 215 227 231 227 226 237 245 244 237 233 226 218 212 209 205 202 200 202 205 207
294 290 290 287 291 289 287 277 281 289 295 298 291 285 285 280 278 274 276 291 297 303 235 214 214 212 207 210 234 257 264 254 244 232 223 217 211 206 202 200 205 209 212
302 293 288 295 283 278 282 289 284 287 287 284 285 275 264 254 250 247 260 265 273 297 296 251 197 208 214 205 221 233 241 253 259 249 239 234 216 198 196 198 199 205 212
305 303 306 310 307 302 296 289 286 288 283 283 282 289 284 268 223 236 234 246 268 299 306 313 212 200 207 209 215 227 239 243 255 260 258 266 222 188 187 203 206 202 210
302 299 302 296 290 292 286 298 288 287 287 284 267 276 280 245 279 147 223 249 294 302 308 327 321 327 236 194 205 218 233 236 245 255 248 258 221 209 201 202 206 204 212
303 302 304 298 287 299 299 301 293 292 298 292 292 271 259 275 286 305 161 291 320 329 346 320 319 316 330 317 259 231 242 249 243 247 251 256 260 220 198 202 205 210 210
309 306 299 297 300 299 300 297 295 290 292 289 286 290 288 283 261 257 273 260 264 264 282 326 318 323 318 280 265 257 245 242 241 241 242 238 206 195 205 209 214 211 211
305 303 297 292 290 289 285 290 292 293 290 286 286 283 283 277 292 271 251 268 257 261 279 302 329 333 315 299 284 288 260 239 236 233 236 234 229 212 210 212 212 213 215
293 291 301 297 295 300 290 285 282 279 284 284 287 288 290 286 291 299 272 230 255 263 265 196 93 317 303 323 315 326 278 235 227 206 150 210 241 246 219 227 228 223 224
285 291 289 286 286 286 288 289 290 279 275 274 279 275 276 277 277 279 277 196 200 235 286 266 62 28 332 349 336 339 331 190 174 159 142 133 119 112 106 97 83 86 66
291 293 289 287 281 282 283 283 272 269 268 269 266 267 266 276 270 279 268 248 196 209 249 144 256 85 338 12 359 350 6 16 67 118 132 120 120 115 117 114 106 101 95
294 292 290 283 288 285 281 273 272 269 267 270 263 266 264 268 273 279 264 247 246 154 147 69 109 46 4 11 3 0 24 20 33 68 88 108 116 118 119 116 114 118 118
283 281 288 292 285 281 276 278 279 280 276 276 269 264 266 267 272 273 285 260 241 164 139 175 144 162 141 76 24 2 20 31 7 48 81 89 99 104 112 113 115 117 127
294 296 298 295 297 292 287 286 287 284 283 280 281 286 287 307 292 259 255 281 273 36 106 113 169 158 287 128 96 46 13 31 26 43 63 84 93 99 96 111 109 109 116
301 296 300 302 305 308 301 293 285 288 281 279 285 297 301 292 304 315 319 303 300 10 95 131 147 145 114 58 100 77 36 28 32 32 51 68 85 92 103 108 113 121 134
302 322 321 320 317 302 289 294 305 305 307 314 330 350 345 337 327 320 312 309 338 2 4 109 115 155 195 134 96 133 188 321 82 35 35 7 44 64 112 124 146 154 146
322 337 340 343 333 342 343 351 335 353 344 350 5 14 20 12 9 351 321 338 333 308 162 152 147 173 151 202 173 149 162 160 82 111 23 313 16 46 27 158 158 165 166
339 353 353 341 343 359 11 18 16 4 11 9 15 16 14 16 19 30 33 37 23 318 280 201 154 205 155 191 111 140 117 167 197 171 160 239 199 177 222 158 178 188 199
319 318 331 328 330 344 358 13 17 26 27 11 12 14 11 10 14 30 34 43 34 32 17 312 239 200 177 156 146 148 161 116 128 149 142 195 150 230 185 196 211 209 214
300 317 324 326 323 341 358 354 347 9 53 66 31 12 10 4 5 359 36 46 43 41 29 21 17 32 68 127 135 93 125 111 112 91 348 86 108 204 116 154 215 217 220
306 311 309 308 316 324 348 359 348 343 12 33 26 27 7 29 18 19 62 64 57 49 29 53 87 102 108 112 111 112 148 127 115 128 170 355 151 161 171 188 200 219 220
292 299 301 296 301 304 321 339 357 331 335 341 80 45 33 33 24 26 56 92 94 35 57 128 17 54 77 97 87 4 169 137 66 91 159 148 116 231 342 170 161 164 222